North Andover, MA

5:47 AM EST on December 09, 2016 (GMT -0500)
Lawrence Municipal

Weather History for KLWM - September, 2013

Change the Weather History Date:

Tuesday, September 17, 2013

  Actual Average Record
Temperature  
Mean Temperature 52 °F -  
Max Temperature 64 °F 71 °F 89 °F (2015)
Min Temperature 41 °F 51 °F 38 °F (1960)
Degree Days  
Heating Degree Days 13    
Growing Degree Days 2 (Base 50)    
Moisture  
Dew Point 37 °F    
Average Humidity 58    
Maximum Humidity 77    
Minimum Humidity 37    
Precipitation  
Precipitation 0.00 in - - ()
Sea Level Pressure  
Sea Level Pressure 30.38 in    
Wind  
Wind Speed 6 mph (North)    
Max Wind Speed 13 mph    
Max Gust Speed 20 mph    
Visibility 10 miles    
Events      
Averages and records for this station are not official NWS values.
T = Trace of Precipitation, MM = Missing Value Source: NWS Daily Summary

Daily Weather History Graph

Daily Weather History Graph

Search for Another Location

Airport or City:

Trip Planner

Search our weather history database for the weather conditions in past years. The results will help you decide how hot, cold, wet, or windy it might be!

Date:

Astronomy

Sep. 17, 2013 Rise Set
Actual Time 6:26 AM EDT 6:50 PM EDT
Civil Twilight 5:58 AM EDT 7:18 PM EDT
Nautical Twilight 5:24 AM EDT 7:51 PM EDT
Astronomical Twilight 4:50 AM EDT 8:26 PM EDT
Moon 5:36 PM EDT (9/17) 4:15 AM EDT (9/17)
Length of Visible Light 13h 20m
Length of Day
12h 23m
Waxing Gibbous, 96% of the Moon is Illuminated
Sep 17
Waxing Gibbous
Sep 19
Full
Sep 26
Last Quarter
Oct 4
New
Oct 11
First Quarter

Hourly Weather History & Observations

Time (EDT) Temp. Windchill Dew Point Humidity Pressure Visibility Wind Dir Wind Speed Gust Speed Precip Events Conditions
12:54 AM 46.0 °F 42.5 °F 35.1 °F 66% 30.31 in 10.0 mi North 6.9 mph - N/A   Scattered Clouds
1:54 AM 46.0 °F 41.4 °F 34.0 °F 63% 30.32 in 10.0 mi North 9.2 mph - N/A   Mostly Cloudy
2:54 AM 44.1 °F 40.8 °F 34.0 °F 68% 30.34 in 10.0 mi North 5.8 mph - N/A   Clear
3:54 AM 43.0 °F 40.3 °F 34.0 °F 71% 30.34 in 10.0 mi NNW 4.6 mph - N/A   Clear
4:54 AM 42.1 °F 40.2 °F 34.0 °F 73% 30.35 in 10.0 mi NNW 3.5 mph - N/A   Clear
5:54 AM 41.0 °F 38.0 °F 34.0 °F 76% 30.37 in 10.0 mi NNW 4.6 mph - N/A   Clear
6:54 AM 41.0 °F 39.0 °F 34.0 °F 76% 30.40 in 10.0 mi NW 3.5 mph - N/A   Clear
7:54 AM 46.0 °F 44.8 °F 36.0 °F 68% 30.42 in 10.0 mi Variable 3.5 mph - N/A   Clear
8:54 AM 52.0 °F - 35.1 °F 53% 30.43 in 10.0 mi North 11.5 mph 19.6 mph N/A   Clear
9:54 AM 55.0 °F - 35.1 °F 47% 30.45 in 10.0 mi NNE 12.7 mph - N/A   Clear
10:54 AM 57.0 °F - 34.0 °F 42% 30.44 in 10.0 mi NNE 9.2 mph - N/A   Clear
11:54 AM 57.9 °F - 36.0 °F 44% 30.44 in 10.0 mi NNE 8.1 mph - N/A   Clear
12:54 PM 60.1 °F - 36.0 °F 41% 30.43 in 10.0 mi North 10.4 mph - N/A   Clear
1:54 PM 61.0 °F - 37.0 °F 41% 30.40 in 10.0 mi Variable 3.5 mph - N/A   Clear
2:54 PM 62.1 °F - 37.0 °F 39% 30.38 in 10.0 mi NNW 3.5 mph - N/A   Clear
3:54 PM 63.0 °F - 36.0 °F 37% 30.37 in 10.0 mi Variable 6.9 mph - N/A   Clear
4:54 PM 63.0 °F - 37.0 °F 38% 30.36 in 10.0 mi NNE 5.8 mph - N/A   Clear
5:54 PM 62.1 °F - 37.9 °F 41% 30.35 in 10.0 mi NW 4.6 mph - N/A   Clear
6:54 PM 59.0 °F - 37.9 °F 46% 30.35 in 10.0 mi Calm Calm - N/A   Clear
7:54 PM 54.0 °F - 41.0 °F 62% 30.35 in 10.0 mi Calm Calm - N/A   Clear
8:54 PM 51.1 °F - 42.1 °F 71% 30.35 in 10.0 mi Calm Calm - N/A   Clear
9:54 PM 50.0 °F - 43.0 °F 77% 30.35 in 10.0 mi Calm Calm - N/A   Clear
10:54 PM 48.9 °F - 42.1 °F 77% 30.35 in 10.0 mi South 4.6 mph - N/A   Clear
11:54 PM 48.9 °F - 42.1 °F 77% 30.35 in 10.0 mi Calm Calm - N/A   Clear